Location: Pardubice
(50.0330°N, 15.7830°E)
Time: 09:30:09
(UTC+01:00)

ISS - Visible Passes

Search period start: 28 November 2020 00:00
Search period end: 08 December 2020 00:00
Orbit: 418 x 420 km, 51.6° (Epoch: 28 November)

Date Brightness Start Highest point End Pass type
(mag) Time Alt. Az. Time Alt. Az. Time Alt. Az.
28 Nov -3.6 16:37:05 10° WSW 16:40:27 73° SSE 16:43:48 10° ENE visible
28 Nov -3.3 18:13:59 10° W 18:16:57 57° NW 18:16:57 57° NW visible
29 Nov -3.7 17:26:25 10° W 17:29:46 67° N 17:31:17 29° ENE visible
29 Nov -0.8 19:03:21 10° WNW 19:04:15 17° WNW 19:04:15 17° WNW visible
30 Nov -3.7 16:38:49 10° W 16:42:11 75° N 16:45:34 10° ENE visible
30 Nov -3.2 18:15:48 10° WNW 18:18:36 56° NW 18:18:36 56° NW visible
01 Dec -3.7 17:28:13 10° W 17:31:34 65° N 17:32:59 31° ENE visible
01 Dec -0.8 19:05:05 10° WNW 19:05:57 17° W 19:05:57 17° W visible
02 Dec -3.6 16:40:37 10° W 16:43:58 64° N 16:47:19 10° E visible
02 Dec -3.3 18:17:30 10° WNW 18:20:22 60° W 18:20:22 60° W visible
03 Dec -3.9 17:29:56 10° WNW 17:33:19 83° NNE 17:34:52 30° E visible
03 Dec -0.7 19:06:54 10° W 19:07:49 16° W 19:07:49 16° W visible
04 Dec -3.7 16:42:20 10° WNW 16:45:42 71° N 16:49:04 10° E visible
04 Dec -2.8 18:19:13 10° W 18:22:24 43° SSW 18:22:24 43° SSW visible
05 Dec -3.3 17:31:35 10° WNW 17:34:55 60° SSW 17:37:06 19° SE visible
05 Dec -0.5 19:09:16 10° WSW 19:10:05 13° WSW 19:10:05 13° WSW visible
06 Dec -3.6 16:43:58 10° WNW 16:47:21 80° SSW 16:50:42 10° ESE visible
06 Dec -1.5 18:21:10 10° W 18:23:47 21° SW 18:24:59 18° S visible
07 Dec -1.9 17:33:19 10° W 17:36:20 30° SSW 17:39:20 10° SSE visible
